Location: Unspecified
(40.7945°N, 0.0000°E)
Time: 19:37:31
(UTC+00:00)

Explorer 7 - Pass Details

Date: 27 June 2021
Orbit: 484 x 676 km, 50.3° (Epoch: 30 July)

Event Time Altitude Azimuth Distance (km) Brightness Sun altitude
Rises 00:24:40 0° 302° (WNW) 3,002 10.9 -25.7°
Reaches altitude 10° 00:27:04 10° 300° (WNW) 2,068 10.0 -25.6°
Enters shadow 00:30:17 41° 287° (WNW) 934 7.9 -25.6°
